Year,Month,Day,Hour,Minute,Value (Times are PST for windspeed in km/hr)
2007,01,07,00,00,1.70
2007,01,07,00,01,1.10
2007,01,07,00,02,1.30
2007,01,07,00,03,0.30
2007,01,07,00,04,0.20
2007,01,07,00,05,0.30
2007,01,07,00,06,0.00
2007,01,07,00,07,0.10
2007,01,07,00,08,1.50
2007,01,07,00,09,0.10
2007,01,07,00,10,0.60
2007,01,07,00,11,0.50
2007,01,07,00,12,1.00
2007,01,07,00,13,0.20
2007,01,07,00,14,0.10
2007,01,07,00,15,0.30
2007,01,07,00,16,0.00
2007,01,07,00,17,0.00
2007,01,07,00,18,0.00
2007,01,07,00,19,0.00
2007,01,07,00,20,0.10
2007,01,07,00,21,0.00
2007,01,07,00,22,0.40
2007,01,07,00,23,0.00
2007,01,07,00,24,0.30
2007,01,07,00,25,0.20
2007,01,07,00,26,0.50
2007,01,07,00,27,1.60
2007,01,07,00,28,0.00
2007,01,07,00,29,0.10
2007,01,07,00,30,0.00
2007,01,07,00,31,0.00
2007,01,07,00,32,0.10
2007,01,07,00,33,0.00
2007,01,07,00,34,0.00
2007,01,07,00,35,0.00
2007,01,07,00,36,0.00
2007,01,07,00,37,0.00
2007,01,07,00,38,0.00
2007,01,07,00,39,0.00
2007,01,07,00,40,0.00
2007,01,07,00,41,0.00
2007,01,07,00,42,0.00
2007,01,07,00,43,0.00
2007,01,07,00,44,0.00
2007,01,07,00,45,0.00
2007,01,07,00,46,0.00
2007,01,07,00,47,0.00
2007,01,07,00,48,0.00
2007,01,07,00,49,0.00
2007,01,07,00,50,0.00
2007,01,07,00,51,0.00
2007,01,07,00,52,0.70
2007,01,07,00,53,0.40
2007,01,07,00,54,0.10
2007,01,07,00,55,0.00
2007,01,07,00,56,0.00
2007,01,07,00,57,0.00
2007,01,07,00,58,0.00
2007,01,07,00,59,0.00
2007,01,07,01,00,0.00
2007,01,07,01,01,0.20
2007,01,07,01,02,1.60
2007,01,07,01,03,0.10
2007,01,07,01,04,0.00
2007,01,07,01,05,0.00
2007,01,07,01,06,0.10
2007,01,07,01,07,0.60
2007,01,07,01,08,0.00
2007,01,07,01,09,0.00
2007,01,07,01,10,0.00
2007,01,07,01,11,0.00
2007,01,07,01,12,0.10
2007,01,07,01,13,0.00
2007,01,07,01,14,0.00
2007,01,07,01,15,0.00
2007,01,07,01,16,0.10
2007,01,07,01,17,0.00
2007,01,07,01,18,0.10
2007,01,07,01,19,0.10
2007,01,07,01,20,0.40
2007,01,07,01,21,0.00
2007,01,07,01,22,0.00
2007,01,07,01,23,0.00
2007,01,07,01,24,0.00
2007,01,07,01,25,0.00
2007,01,07,01,26,0.00
2007,01,07,01,27,0.00
2007,01,07,01,28,0.00
2007,01,07,01,29,0.00
2007,01,07,01,30,0.00
2007,01,07,01,31,0.00
2007,01,07,01,32,0.00
2007,01,07,01,33,0.00
2007,01,07,01,34,0.00
2007,01,07,01,35,0.10
2007,01,07,01,36,0.10
2007,01,07,01,37,0.20
2007,01,07,01,38,0.10
2007,01,07,01,39,0.00
2007,01,07,01,40,0.00
2007,01,07,01,41,0.00
2007,01,07,01,42,0.00
2007,01,07,01,43,0.00
2007,01,07,01,44,0.00
2007,01,07,01,45,0.00
2007,01,07,01,46,0.00
2007,01,07,01,47,0.20
2007,01,07,01,48,0.30
2007,01,07,01,49,0.00
2007,01,07,01,50,0.00
2007,01,07,01,51,0.00
2007,01,07,01,52,0.20
2007,01,07,01,53,0.10
2007,01,07,01,54,0.00
2007,01,07,01,55,0.00
2007,01,07,01,56,0.00
2007,01,07,01,57,1.00
2007,01,07,01,58,0.20
2007,01,07,01,59,0.20
2007,01,07,02,00,0.00
2007,01,07,02,01,0.00
2007,01,07,02,02,0.00
2007,01,07,02,03,0.00
2007,01,07,02,04,0.00
2007,01,07,02,05,0.00
2007,01,07,02,06,0.10
2007,01,07,02,07,0.90
2007,01,07,02,08,0.10
2007,01,07,02,09,0.40
2007,01,07,02,10,0.00
2007,01,07,02,11,0.00
2007,01,07,02,12,0.90
2007,01,07,02,13,0.20
2007,01,07,02,14,0.00
2007,01,07,02,15,0.00
2007,01,07,02,16,0.10
2007,01,07,02,17,0.20
2007,01,07,02,18,0.60
2007,01,07,02,19,0.20
2007,01,07,02,20,0.40
2007,01,07,02,21,0.30
2007,01,07,02,22,1.50
2007,01,07,02,23,0.00
2007,01,07,02,24,0.00
2007,01,07,02,25,0.00
2007,01,07,02,26,0.00
2007,01,07,02,27,0.10
2007,01,07,02,28,0.00
2007,01,07,02,29,0.00
2007,01,07,02,30,0.00
2007,01,07,02,31,0.00
2007,01,07,02,32,0.10
2007,01,07,02,33,0.90
2007,01,07,02,34,1.70
2007,01,07,02,35,2.00
2007,01,07,02,36,2.10
2007,01,07,02,37,1.40
2007,01,07,02,38,0.20
2007,01,07,02,39,0.10
2007,01,07,02,40,1.00
2007,01,07,02,41,4.60
2007,01,07,02,42,5.40
2007,01,07,02,43,3.70
2007,01,07,02,44,1.60
2007,01,07,02,45,0.10
2007,01,07,02,46,1.10
2007,01,07,02,47,0.60
2007,01,07,02,48,1.10
2007,01,07,02,49,1.30
2007,01,07,02,50,0.20
2007,01,07,02,51,0.00
2007,01,07,02,52,0.00
2007,01,07,02,53,0.00
2007,01,07,02,54,0.00
2007,01,07,02,55,0.30
2007,01,07,02,56,2.00
2007,01,07,02,57,0.90
2007,01,07,02,58,3.50
2007,01,07,02,59,0.70
2007,01,07,03,00,0.00
2007,01,07,03,01,0.20
2007,01,07,03,02,0.20
2007,01,07,03,03,0.10
2007,01,07,03,04,0.90
2007,01,07,03,05,2.00
2007,01,07,03,06,1.50
2007,01,07,03,07,2.20
2007,01,07,03,08,0.30
2007,01,07,03,09,0.00
2007,01,07,03,10,0.50
2007,01,07,03,11,1.40
2007,01,07,03,12,1.40
2007,01,07,03,13,2.70
2007,01,07,03,14,0.80
2007,01,07,03,15,0.00
2007,01,07,03,16,1.40
2007,01,07,03,17,0.70
2007,01,07,03,18,0.20
2007,01,07,03,19,0.00
2007,01,07,03,20,0.00
2007,01,07,03,21,0.00
2007,01,07,03,22,0.00
2007,01,07,03,23,0.00
2007,01,07,03,24,0.90
2007,01,07,03,25,1.80
2007,01,07,03,26,2.50
2007,01,07,03,27,3.80
2007,01,07,03,28,2.40
2007,01,07,03,29,1.40
2007,01,07,03,30,0.20
2007,01,07,03,31,0.00
2007,01,07,03,32,0.00
2007,01,07,03,33,0.00
2007,01,07,03,34,0.10
2007,01,07,03,35,1.50
2007,01,07,03,36,0.60
2007,01,07,03,37,0.00
2007,01,07,03,38,0.00
2007,01,07,03,39,0.00
2007,01,07,03,40,0.90
2007,01,07,03,41,1.90
2007,01,07,03,42,0.00
2007,01,07,03,43,0.20
2007,01,07,03,44,0.00
2007,01,07,03,45,0.00
2007,01,07,03,46,0.60
2007,01,07,03,47,0.40
2007,01,07,03,48,1.30
2007,01,07,03,49,2.10
2007,01,07,03,50,0.50
2007,01,07,03,51,0.20
2007,01,07,03,52,0.90
2007,01,07,03,53,1.00
2007,01,07,03,54,2.20
2007,01,07,03,55,2.40
2007,01,07,03,56,3.20
2007,01,07,03,57,0.20
2007,01,07,03,58,0.00
2007,01,07,03,59,0.00
2007,01,07,04,00,0.70
2007,01,07,04,01,0.40
2007,01,07,04,02,0.20
2007,01,07,04,03,1.30
2007,01,07,04,04,0.30
2007,01,07,04,05,0.10
2007,01,07,04,06,0.00
2007,01,07,04,07,0.00
2007,01,07,04,08,0.10
2007,01,07,04,09,0.20
2007,01,07,04,10,0.00
2007,01,07,04,11,0.00
2007,01,07,04,12,0.00
2007,01,07,04,13,0.00
2007,01,07,04,14,0.10
2007,01,07,04,15,1.90
2007,01,07,04,16,0.20
2007,01,07,04,17,0.10
2007,01,07,04,18,1.20
2007,01,07,04,19,1.60
2007,01,07,04,20,0.40
2007,01,07,04,21,0.60
2007,01,07,04,22,1.80
2007,01,07,04,23,0.60
2007,01,07,04,24,0.00
2007,01,07,04,25,0.00
2007,01,07,04,26,1.60
2007,01,07,04,27,1.00
2007,01,07,04,28,1.30
2007,01,07,04,29,2.20
2007,01,07,04,30,1.40
2007,01,07,04,31,1.10
2007,01,07,04,32,0.50
2007,01,07,04,33,2.40
2007,01,07,04,34,0.60
2007,01,07,04,35,4.80
2007,01,07,04,36,2.70
2007,01,07,04,37,5.70
2007,01,07,04,38,3.00
2007,01,07,04,39,2.40
2007,01,07,04,40,0.80
2007,01,07,04,41,2.50
2007,01,07,04,42,1.90
2007,01,07,04,43,5.30
2007,01,07,04,44,2.00
2007,01,07,04,45,3.70
2007,01,07,04,46,3.00
2007,01,07,04,47,4.10
2007,01,07,04,48,2.70
2007,01,07,04,49,2.20
2007,01,07,04,50,1.10
2007,01,07,04,51,0.90
2007,01,07,04,52,0.00
2007,01,07,04,53,0.40
2007,01,07,04,54,0.60
2007,01,07,04,55,0.70
2007,01,07,04,56,1.10
2007,01,07,04,57,0.10
2007,01,07,04,58,0.10
2007,01,07,04,59,1.30
2007,01,07,05,00,0.20
2007,01,07,05,01,0.00
2007,01,07,05,02,0.00
2007,01,07,05,03,0.30
2007,01,07,05,04,4.90
2007,01,07,05,05,1.30
2007,01,07,05,06,0.00
2007,01,07,05,07,1.10
2007,01,07,05,08,2.30
2007,01,07,05,09,3.00
2007,01,07,05,10,1.10
2007,01,07,05,11,0.70
2007,01,07,05,12,0.40
2007,01,07,05,13,0.10
2007,01,07,05,14,0.80
2007,01,07,05,15,3.10
2007,01,07,05,16,1.70
2007,01,07,05,17,0.30
2007,01,07,05,18,0.90
2007,01,07,05,19,2.90
2007,01,07,05,20,0.80
2007,01,07,05,21,0.40
2007,01,07,05,22,0.00
2007,01,07,05,23,0.20
2007,01,07,05,24,0.10
2007,01,07,05,25,0.10
2007,01,07,05,26,1.50
2007,01,07,05,27,0.80
2007,01,07,05,28,0.00
2007,01,07,05,29,0.00
2007,01,07,05,30,0.00
2007,01,07,05,31,1.90
2007,01,07,05,32,0.20
2007,01,07,05,33,1.40
2007,01,07,05,34,1.90
2007,01,07,05,35,1.90
2007,01,07,05,36,1.50
2007,01,07,05,37,2.90
2007,01,07,05,38,2.00
2007,01,07,05,39,3.10
2007,01,07,05,40,0.10
2007,01,07,05,41,0.10
2007,01,07,05,42,0.80
2007,01,07,05,43,3.00
2007,01,07,05,44,3.40
2007,01,07,05,45,0.90
2007,01,07,05,46,0.30
2007,01,07,05,47,0.20
2007,01,07,05,48,0.20
2007,01,07,05,49,3.10
2007,01,07,05,50,3.80
2007,01,07,05,51,3.10
2007,01,07,05,52,1.50
2007,01,07,05,53,0.60
2007,01,07,05,54,1.80
2007,01,07,05,55,1.70
2007,01,07,05,56,0.60
2007,01,07,05,57,0.00
2007,01,07,05,58,0.00
2007,01,07,05,59,2.00
2007,01,07,06,00,0.80
2007,01,07,06,01,2.40
2007,01,07,06,02,2.10
2007,01,07,06,03,0.00
2007,01,07,06,04,0.40
2007,01,07,06,05,0.90
2007,01,07,06,06,3.10
2007,01,07,06,07,3.50
2007,01,07,06,08,3.00
2007,01,07,06,09,4.30
2007,01,07,06,10,0.70
2007,01,07,06,11,0.90
2007,01,07,06,12,0.20
2007,01,07,06,13,2.30
2007,01,07,06,14,2.60
2007,01,07,06,15,2.20
2007,01,07,06,16,5.60
2007,01,07,06,17,3.90
2007,01,07,06,18,5.50
2007,01,07,06,19,2.00
2007,01,07,06,20,1.80
2007,01,07,06,21,3.90
2007,01,07,06,22,2.40
2007,01,07,06,23,3.00
2007,01,07,06,24,2.60
2007,01,07,06,25,2.50
2007,01,07,06,26,3.00
2007,01,07,06,27,1.60
2007,01,07,06,28,9.60
2007,01,07,06,29,8.50
2007,01,07,06,30,5.20
2007,01,07,06,31,4.70
2007,01,07,06,32,3.60
2007,01,07,06,33,7.60
2007,01,07,06,34,9.70
2007,01,07,06,35,4.70
2007,01,07,06,36,14.60
2007,01,07,06,37,6.10
2007,01,07,06,38,8.80
2007,01,07,06,39,7.30
2007,01,07,06,40,7.20
2007,01,07,06,41,6.40
2007,01,07,06,42,10.60
2007,01,07,06,43,3.00
2007,01,07,06,44,7.90
2007,01,07,06,45,10.40
2007,01,07,06,46,13.20
2007,01,07,06,47,8.00
2007,01,07,06,48,7.90
2007,01,07,06,49,15.00
2007,01,07,06,50,4.60
2007,01,07,06,51,8.50
2007,01,07,06,52,4.70
2007,01,07,06,53,9.80
2007,01,07,06,54,15.90
2007,01,07,06,55,6.70
2007,01,07,06,56,11.30
2007,01,07,06,57,6.90
2007,01,07,06,58,6.50
2007,01,07,06,59,8.40
2007,01,07,07,00,12.60
2007,01,07,07,01,4.80
2007,01,07,07,02,5.00
2007,01,07,07,03,8.00
2007,01,07,07,04,6.80
2007,01,07,07,05,8.80
2007,01,07,07,06,15.80
2007,01,07,07,07,5.50
2007,01,07,07,08,9.10
2007,01,07,07,09,9.30
2007,01,07,07,10,3.90
2007,01,07,07,11,7.80
2007,01,07,07,12,11.40
2007,01,07,07,13,8.40
2007,01,07,07,14,10.00
2007,01,07,07,15,6.00
2007,01,07,07,16,6.90
2007,01,07,07,17,6.40
2007,01,07,07,18,7.00
2007,01,07,07,19,7.50
2007,01,07,07,20,8.40
2007,01,07,07,21,7.70
2007,01,07,07,22,5.40
2007,01,07,07,23,4.00
2007,01,07,07,24,11.30
2007,01,07,07,25,7.50
2007,01,07,07,26,5.00
2007,01,07,07,27,10.10
2007,01,07,07,28,13.10
2007,01,07,07,29,8.50
2007,01,07,07,30,8.90
2007,01,07,07,31,4.80
2007,01,07,07,32,4.90
2007,01,07,07,33,3.70
2007,01,07,07,34,3.90
2007,01,07,07,35,11.20
2007,01,07,07,36,10.00
2007,01,07,07,37,12.00
2007,01,07,07,38,6.30
2007,01,07,07,39,21.60
2007,01,07,07,40,13.00
2007,01,07,07,41,6.10
2007,01,07,07,42,13.50
2007,01,07,07,43,9.70
2007,01,07,07,44,13.60
2007,01,07,07,45,9.00
2007,01,07,07,46,3.50
2007,01,07,07,47,11.40
2007,01,07,07,48,17.30
2007,01,07,07,49,10.90
2007,01,07,07,50,16.90
2007,01,07,07,51,10.70
2007,01,07,07,52,12.10
2007,01,07,07,53,12.90
2007,01,07,07,54,11.80
2007,01,07,07,55,5.40
2007,01,07,07,56,6.60
2007,01,07,07,57,5.30
2007,01,07,07,58,15.20
2007,01,07,07,59,19.10
2007,01,07,08,00,8.90
2007,01,07,08,01,12.30
2007,01,07,08,02,3.90
2007,01,07,08,03,11.30
2007,01,07,08,04,5.30
2007,01,07,08,05,5.10
2007,01,07,08,06,4.80
2007,01,07,08,07,7.10
2007,01,07,08,08,1.70
2007,01,07,08,09,7.80
2007,01,07,08,10,9.70
2007,01,07,08,11,14.10
2007,01,07,08,12,11.20
2007,01,07,08,13,13.20
2007,01,07,08,14,8.80
2007,01,07,08,15,5.10
2007,01,07,08,16,3.40
2007,01,07,08,17,6.80
2007,01,07,08,18,7.40
2007,01,07,08,19,6.70
2007,01,07,08,20,6.10
2007,01,07,08,21,6.00
2007,01,07,08,22,7.90
2007,01,07,08,23,6.70
2007,01,07,08,24,7.00
2007,01,07,08,25,6.70
2007,01,07,08,26,8.00
2007,01,07,08,27,7.10
2007,01,07,08,28,4.30
2007,01,07,08,29,7.80
2007,01,07,08,30,5.10
2007,01,07,08,31,13.50
2007,01,07,08,32,12.70
2007,01,07,08,33,2.70
2007,01,07,08,34,2.70
2007,01,07,08,35,6.00
2007,01,07,08,36,5.70
2007,01,07,08,37,5.30
2007,01,07,08,38,8.60
2007,01,07,08,39,6.40
2007,01,07,08,40,8.10
2007,01,07,08,41,5.00
2007,01,07,08,42,6.80
2007,01,07,08,43,6.40
2007,01,07,08,44,6.60
2007,01,07,08,45,9.10
2007,01,07,08,46,9.90
2007,01,07,08,47,6.10
2007,01,07,08,48,6.40
2007,01,07,08,49,12.40
2007,01,07,08,50,7.20
2007,01,07,08,51,12.80
2007,01,07,08,52,8.40
2007,01,07,08,53,9.10
2007,01,07,08,54,6.60
2007,01,07,08,55,5.60
2007,01,07,08,56,9.30
2007,01,07,08,57,6.80
2007,01,07,08,58,7.70
2007,01,07,08,59,7.50
2007,01,07,09,00,9.90
2007,01,07,09,01,10.90
2007,01,07,09,02,7.40
2007,01,07,09,03,10.00
2007,01,07,09,04,12.50
2007,01,07,09,05,9.00
2007,01,07,09,06,5.80
2007,01,07,09,07,9.20
2007,01,07,09,08,6.90
2007,01,07,09,09,11.60
2007,01,07,09,10,7.60
2007,01,07,09,11,5.80
2007,01,07,09,12,7.00
2007,01,07,09,13,3.00
2007,01,07,09,14,11.00
2007,01,07,09,15,12.20
2007,01,07,09,16,9.70
2007,01,07,09,17,13.90
2007,01,07,09,18,12.70
2007,01,07,09,19,12.30
2007,01,07,09,20,9.80
2007,01,07,09,21,16.30
2007,01,07,09,22,8.80
2007,01,07,09,23,8.50
2007,01,07,09,24,4.50
2007,01,07,09,25,9.60
2007,01,07,09,26,7.40
2007,01,07,09,27,1.80
2007,01,07,09,28,8.90
2007,01,07,09,29,4.30
2007,01,07,09,30,4.10
2007,01,07,09,31,12.00
2007,01,07,09,32,10.40
2007,01,07,09,33,4.70
2007,01,07,09,34,8.00
2007,01,07,09,35,5.90
2007,01,07,09,36,8.90
2007,01,07,09,37,8.50
2007,01,07,09,38,6.70
2007,01,07,09,39,32.00
2007,01,07,09,40,18.80
2007,01,07,09,41,5.00
2007,01,07,09,42,4.70
2007,01,07,09,43,3.00
2007,01,07,09,44,9.40
2007,01,07,09,45,9.80
2007,01,07,09,46,8.90
2007,01,07,09,47,12.90
2007,01,07,09,48,10.30
2007,01,07,09,49,7.40
2007,01,07,09,50,4.00
2007,01,07,09,51,9.40
2007,01,07,09,52,5.90
2007,01,07,09,53,9.20
2007,01,07,09,54,11.80
2007,01,07,09,55,20.10
2007,01,07,09,56,4.60
2007,01,07,09,57,6.80
2007,01,07,09,58,7.60
2007,01,07,09,59,6.80
2007,01,07,10,00,5.20
2007,01,07,10,01,10.90
2007,01,07,10,02,8.70
2007,01,07,10,03,18.50
2007,01,07,10,04,17.30
2007,01,07,10,05,9.60
2007,01,07,10,06,10.80
2007,01,07,10,07,7.60
2007,01,07,10,08,9.30
2007,01,07,10,09,5.90
2007,01,07,10,10,11.00
2007,01,07,10,11,9.60
2007,01,07,10,12,4.40
2007,01,07,10,13,14.60
2007,01,07,10,14,12.40
2007,01,07,10,15,11.90
2007,01,07,10,16,10.60
2007,01,07,10,17,4.70
2007,01,07,10,18,12.20
2007,01,07,10,19,11.00
2007,01,07,10,20,13.70
2007,01,07,10,21,9.70
2007,01,07,10,22,12.60
2007,01,07,10,23,8.30
2007,01,07,10,24,9.60
2007,01,07,10,25,9.80
2007,01,07,10,26,5.80
2007,01,07,10,27,12.50
2007,01,07,10,28,12.40
2007,01,07,10,29,18.10
2007,01,07,10,30,23.50
2007,01,07,10,31,6.60
2007,01,07,10,32,12.40
2007,01,07,10,33,10.10
2007,01,07,10,34,16.30
2007,01,07,10,35,7.50
2007,01,07,10,36,12.60
2007,01,07,10,37,7.30
2007,01,07,10,38,8.20
2007,01,07,10,39,4.60
2007,01,07,10,40,8.30
2007,01,07,10,41,4.70
2007,01,07,10,42,9.40
2007,01,07,10,43,9.70
2007,01,07,10,44,10.60
2007,01,07,10,45,8.60
2007,01,07,10,46,6.60
2007,01,07,10,47,11.10
2007,01,07,10,48,17.40
2007,01,07,10,49,22.50
2007,01,07,10,50,17.90
2007,01,07,10,51,11.90
2007,01,07,10,52,8.10
2007,01,07,10,53,7.90
2007,01,07,10,54,4.50
2007,01,07,10,55,6.00
2007,01,07,10,56,5.30
2007,01,07,10,57,8.10
2007,01,07,10,58,10.90
2007,01,07,10,59,7.20
2007,01,07,11,00,13.80
2007,01,07,11,01,16.20
2007,01,07,11,02,5.70
2007,01,07,11,03,9.30
2007,01,07,11,04,10.70
2007,01,07,11,05,2.40
2007,01,07,11,06,6.00
2007,01,07,11,07,6.80
2007,01,07,11,08,3.00
2007,01,07,11,09,3.20
2007,01,07,11,10,7.00
2007,01,07,11,11,10.60
2007,01,07,11,12,5.80
2007,01,07,11,13,10.30
2007,01,07,11,14,8.40
2007,01,07,11,15,13.00
2007,01,07,11,16,9.30
2007,01,07,11,17,4.50
2007,01,07,11,18,7.40
2007,01,07,11,19,11.70
2007,01,07,11,20,10.10
2007,01,07,11,21,4.60
2007,01,07,11,22,2.80
2007,01,07,11,23,11.00
2007,01,07,11,24,4.30
2007,01,07,11,25,6.80
2007,01,07,11,26,5.10
2007,01,07,11,27,16.00
2007,01,07,11,28,10.60
2007,01,07,11,29,11.60
2007,01,07,11,30,15.50
2007,01,07,11,31,11.60
2007,01,07,11,32,5.40
2007,01,07,11,33,11.50
2007,01,07,11,34,5.90
2007,01,07,11,35,8.50
2007,01,07,11,36,14.20
2007,01,07,11,37,10.10
2007,01,07,11,38,7.20
2007,01,07,11,39,12.00
2007,01,07,11,40,7.30
2007,01,07,11,41,17.10
2007,01,07,11,42,11.30
2007,01,07,11,43,9.90
2007,01,07,11,44,10.10
2007,01,07,11,45,7.90
2007,01,07,11,46,7.50
2007,01,07,11,47,3.80
2007,01,07,11,48,8.00
2007,01,07,11,49,7.90
2007,01,07,11,50,10.20
2007,01,07,11,51,3.30
2007,01,07,11,52,13.10
2007,01,07,11,53,12.60
2007,01,07,11,54,4.90
2007,01,07,11,55,3.80
2007,01,07,11,56,9.20
2007,01,07,11,57,5.90
2007,01,07,11,58,12.20
2007,01,07,11,59,8.80
2007,01,07,12,00,3.40
2007,01,07,12,01,4.80
2007,01,07,12,02,8.50
2007,01,07,12,03,7.20
2007,01,07,12,04,11.40
2007,01,07,12,05,15.90
2007,01,07,12,06,17.50
2007,01,07,12,07,12.90
2007,01,07,12,08,11.20
2007,01,07,12,09,5.90
2007,01,07,12,10,14.30
2007,01,07,12,11,12.10
2007,01,07,12,12,9.80
2007,01,07,12,13,14.30
2007,01,07,12,14,11.40
2007,01,07,12,15,12.40
2007,01,07,12,16,4.60
2007,01,07,12,17,13.80
2007,01,07,12,18,18.50
2007,01,07,12,19,15.30
2007,01,07,12,20,20.40
2007,01,07,12,21,12.40
2007,01,07,12,22,13.80
2007,01,07,12,23,17.10
2007,01,07,12,24,6.00
2007,01,07,12,25,10.20
2007,01,07,12,26,10.90
2007,01,07,12,27,16.20
2007,01,07,12,28,13.00
2007,01,07,12,29,11.10
2007,01,07,12,30,14.70
2007,01,07,12,31,7.90
2007,01,07,12,32,18.70
2007,01,07,12,33,13.80
2007,01,07,12,34,8.00
2007,01,07,12,35,13.00
2007,01,07,12,36,15.40
2007,01,07,12,37,15.20
2007,01,07,12,38,10.40
2007,01,07,12,39,6.00
2007,01,07,12,40,4.90
2007,01,07,12,41,7.60
2007,01,07,12,42,15.00
2007,01,07,12,43,11.60
2007,01,07,12,44,10.30
2007,01,07,12,45,9.20
2007,01,07,12,46,8.30
2007,01,07,12,47,10.90
2007,01,07,12,48,12.80
2007,01,07,12,49,9.90
2007,01,07,12,50,8.60
2007,01,07,12,51,8.20
2007,01,07,12,52,13.60
2007,01,07,12,53,9.90
2007,01,07,12,54,11.00
2007,01,07,12,55,10.30
2007,01,07,12,56,10.80
2007,01,07,12,57,11.70
2007,01,07,12,58,10.90
2007,01,07,12,59,4.80
2007,01,07,13,00,4.90
2007,01,07,13,01,10.60
2007,01,07,13,02,16.70
2007,01,07,13,03,17.10
2007,01,07,13,04,9.30
2007,01,07,13,05,14.00
2007,01,07,13,06,8.90
2007,01,07,13,07,5.90
2007,01,07,13,08,8.90
2007,01,07,13,09,6.80
2007,01,07,13,10,14.50
2007,01,07,13,11,14.70
2007,01,07,13,12,17.90
2007,01,07,13,13,16.60
2007,01,07,13,14,18.00
2007,01,07,13,15,8.70
2007,01,07,13,16,17.60
2007,01,07,13,17,11.40
2007,01,07,13,18,10.80
2007,01,07,13,19,9.50
2007,01,07,13,20,7.90
2007,01,07,13,21,16.70
2007,01,07,13,22,11.20
2007,01,07,13,23,19.20
2007,01,07,13,24,11.60
2007,01,07,13,25,12.90
2007,01,07,13,26,5.60
2007,01,07,13,27,12.20
2007,01,07,13,28,10.30
2007,01,07,13,29,10.80
2007,01,07,13,30,15.10
2007,01,07,13,31,7.40
2007,01,07,13,32,8.00
2007,01,07,13,33,10.90
2007,01,07,13,34,8.20
2007,01,07,13,35,9.00
2007,01,07,13,36,12.50
2007,01,07,13,37,8.90
2007,01,07,13,38,9.10
2007,01,07,13,39,4.70
2007,01,07,13,40,13.80
2007,01,07,13,41,8.10
2007,01,07,13,42,14.90
2007,01,07,13,43,18.20
2007,01,07,13,44,5.20
2007,01,07,13,45,10.60
2007,01,07,13,46,13.20
2007,01,07,13,47,6.90
2007,01,07,13,48,10.10
2007,01,07,13,49,7.20
2007,01,07,13,50,10.30
2007,01,07,13,51,7.30
2007,01,07,13,52,10.30
2007,01,07,13,53,8.90
2007,01,07,13,54,10.30
2007,01,07,13,55,8.70
2007,01,07,13,56,12.00
2007,01,07,13,57,8.60
2007,01,07,13,58,5.10
2007,01,07,13,59,5.10
2007,01,07,14,00,10.70
2007,01,07,14,01,7.20
2007,01,07,14,02,9.10
2007,01,07,14,03,11.00
2007,01,07,14,04,12.80
2007,01,07,14,05,10.20
2007,01,07,14,06,4.30
2007,01,07,14,07,4.20
2007,01,07,14,08,6.70
2007,01,07,14,09,7.50
2007,01,07,14,10,3.10
2007,01,07,14,11,5.70
2007,01,07,14,12,12.10
2007,01,07,14,13,13.30
2007,01,07,14,14,14.20
2007,01,07,14,15,12.70
2007,01,07,14,16,10.50
2007,01,07,14,17,19.20
2007,01,07,14,18,11.90
2007,01,07,14,19,9.00
2007,01,07,14,20,15.90
2007,01,07,14,21,11.40
2007,01,07,14,22,4.50
2007,01,07,14,23,5.20
2007,01,07,14,24,14.20
2007,01,07,14,25,8.10
2007,01,07,14,26,10.20
2007,01,07,14,27,10.70
2007,01,07,14,28,9.10
2007,01,07,14,29,11.30
2007,01,07,14,30,3.50
2007,01,07,14,31,7.20
2007,01,07,14,32,6.80
2007,01,07,14,33,10.50
2007,01,07,14,34,6.30
2007,01,07,14,35,11.80
2007,01,07,14,36,12.60
2007,01,07,14,37,9.50
2007,01,07,14,38,15.50
2007,01,07,14,39,12.30
2007,01,07,14,40,11.90
2007,01,07,14,41,3.50
2007,01,07,14,42,7.70
2007,01,07,14,43,15.00
2007,01,07,14,44,6.40
2007,01,07,14,45,9.90
2007,01,07,14,46,7.30
2007,01,07,14,47,14.10
2007,01,07,14,48,4.40
2007,01,07,14,49,10.80
2007,01,07,14,50,5.60
2007,01,07,14,51,2.70
2007,01,07,14,52,10.90
2007,01,07,14,53,5.60
2007,01,07,14,54,10.60
2007,01,07,14,55,10.30
2007,01,07,14,56,12.80
2007,01,07,14,57,8.00
2007,01,07,14,58,15.80
2007,01,07,14,59,7.50
2007,01,07,15,00,8.10
2007,01,07,15,01,7.40
2007,01,07,15,02,12.40
2007,01,07,15,03,17.10
2007,01,07,15,04,13.10
2007,01,07,15,05,6.00
2007,01,07,15,06,5.20
2007,01,07,15,07,4.60
2007,01,07,15,08,8.60
2007,01,07,15,09,10.90
2007,01,07,15,10,8.90
2007,01,07,15,11,5.20
2007,01,07,15,12,1.80
2007,01,07,15,13,4.70
2007,01,07,15,14,6.30
2007,01,07,15,15,13.70
2007,01,07,15,16,7.10
2007,01,07,15,17,10.30
2007,01,07,15,18,16.20
2007,01,07,15,19,8.00
2007,01,07,15,20,13.10
2007,01,07,15,21,8.40
2007,01,07,15,22,8.10
2007,01,07,15,23,11.00
2007,01,07,15,24,6.00
2007,01,07,15,25,5.00
2007,01,07,15,26,6.90
2007,01,07,15,27,9.70
2007,01,07,15,28,8.40
2007,01,07,15,29,11.70
2007,01,07,15,30,6.10
2007,01,07,15,31,7.20
2007,01,07,15,32,16.00
2007,01,07,15,33,12.80
2007,01,07,15,34,7.00
2007,01,07,15,35,11.90
2007,01,07,15,36,10.10
2007,01,07,15,37,12.10
2007,01,07,15,38,13.60
2007,01,07,15,39,9.60
2007,01,07,15,40,8.10
2007,01,07,15,41,7.80
2007,01,07,15,42,4.50
2007,01,07,15,43,2.80
2007,01,07,15,44,6.20
2007,01,07,15,45,4.60
2007,01,07,15,46,5.60
2007,01,07,15,47,14.10
2007,01,07,15,48,10.30
2007,01,07,15,49,8.20
2007,01,07,15,50,7.30
2007,01,07,15,51,6.40
2007,01,07,15,52,8.60
2007,01,07,15,53,14.50
2007,01,07,15,54,19.00
2007,01,07,15,55,18.70
2007,01,07,15,56,18.80
2007,01,07,15,57,13.00
2007,01,07,15,58,9.30
2007,01,07,15,59,9.60
2007,01,07,16,00,14.10
2007,01,07,16,01,12.10
2007,01,07,16,02,9.40
2007,01,07,16,03,11.40
2007,01,07,16,04,7.90
2007,01,07,16,05,5.20
2007,01,07,16,06,14.70
2007,01,07,16,07,11.70
2007,01,07,16,08,15.80
2007,01,07,16,09,14.20
2007,01,07,16,10,17.20
2007,01,07,16,11,6.20
2007,01,07,16,12,10.30
2007,01,07,16,13,7.60
2007,01,07,16,14,13.80
2007,01,07,16,15,14.30
2007,01,07,16,16,13.10
2007,01,07,16,17,8.40
2007,01,07,16,18,6.60
2007,01,07,16,19,14.20
2007,01,07,16,20,14.50
2007,01,07,16,21,9.80
2007,01,07,16,22,11.20
2007,01,07,16,23,12.40
2007,01,07,16,24,6.20
2007,01,07,16,25,18.60
2007,01,07,16,26,16.30
2007,01,07,16,27,16.20
2007,01,07,16,28,10.40
2007,01,07,16,29,11.10
2007,01,07,16,30,7.10
2007,01,07,16,31,11.70
2007,01,07,16,32,15.40
2007,01,07,16,33,13.80
2007,01,07,16,34,12.20
2007,01,07,16,35,16.90
2007,01,07,16,36,7.90
2007,01,07,16,37,7.50
2007,01,07,16,38,15.70
2007,01,07,16,39,15.10
2007,01,07,16,40,11.50
2007,01,07,16,41,12.00
2007,01,07,16,42,11.50
2007,01,07,16,43,7.00
2007,01,07,16,44,13.30
2007,01,07,16,45,13.20
2007,01,07,16,46,14.20
2007,01,07,16,47,14.80
2007,01,07,16,48,10.30
2007,01,07,16,49,17.90
2007,01,07,16,50,6.00
2007,01,07,16,51,9.30
2007,01,07,16,52,7.40
2007,01,07,16,53,8.10
2007,01,07,16,54,8.10
2007,01,07,16,55,6.40
2007,01,07,16,56,10.80
2007,01,07,16,57,8.20
2007,01,07,16,58,7.60
2007,01,07,16,59,9.60
2007,01,07,17,00,11.10
2007,01,07,17,01,11.10
2007,01,07,17,02,9.50
2007,01,07,17,03,8.10
2007,01,07,17,04,11.30
2007,01,07,17,05,10.90
2007,01,07,17,06,8.80
2007,01,07,17,07,8.50
2007,01,07,17,08,9.80
2007,01,07,17,09,18.10
2007,01,07,17,10,23.40
2007,01,07,17,11,8.50
2007,01,07,17,12,8.10
2007,01,07,17,13,2.60
2007,01,07,17,14,13.90
2007,01,07,17,15,15.90
2007,01,07,17,16,23.70
2007,01,07,17,17,6.70
2007,01,07,17,18,10.30
2007,01,07,17,19,13.80
2007,01,07,17,20,9.00
2007,01,07,17,21,11.10
2007,01,07,17,22,12.30
2007,01,07,17,23,10.40
2007,01,07,17,24,6.60
2007,01,07,17,25,6.40
2007,01,07,17,26,4.90
2007,01,07,17,27,9.20
2007,01,07,17,28,10.00
2007,01,07,17,29,15.20
2007,01,07,17,30,8.30
2007,01,07,17,31,11.20
2007,01,07,17,32,11.90
2007,01,07,17,33,7.60
2007,01,07,17,34,8.30
2007,01,07,17,35,5.10
2007,01,07,17,36,6.70
2007,01,07,17,37,10.40
2007,01,07,17,38,12.00
2007,01,07,17,39,4.80
2007,01,07,17,40,10.00
2007,01,07,17,41,13.20
2007,01,07,17,42,9.10
2007,01,07,17,43,10.30
2007,01,07,17,44,14.60
2007,01,07,17,45,18.40
2007,01,07,17,46,15.60
2007,01,07,17,47,8.50
2007,01,07,17,48,6.40
2007,01,07,17,49,11.90
2007,01,07,17,50,17.90
2007,01,07,17,51,17.00
2007,01,07,17,52,10.00